Location: ?????????
(54.7630°N, 39.4991°E)
Time: 21:44:59
(UTC+00:00)

Meteor 2-10 - Pass Details

Date: 14 April 2026
Orbit: 737 x 865 km, 81.2° (Epoch: 13 May)

Event Time Altitude Azimuth Distance (km) Brightness Sun altitude
Rises 22:30:31 0° 347° (NNW) 3,276 8.2 -24.0°
Reaches altitude 10° 22:32:53 10° 351° (N) 2,362 7.3 -23.9°
Maximum altitude 22:38:11 62° 72° (ENE) 909 4.4 -23.6°
Enters shadow 22:40:27 34° 139° (SE) 1,311 4.9 -23.5°
